This demonstration page uses our WeatherBlox Daily Observations layout. Learn more.

Left ArrowRight Arrow

34.74481, -87.66753

Hourly Observations for May 15, 2021

Temp ( °F °C ) Dew Point ( °F °C ) Humidity (%) Winds ( mph kmh ) Pressure ( in mb ) Visibility ( mi km ) Precip ( " mm )
12:53 am 00:53 Clear 53 11.7 47 8.3 80 80 Calm 30.22 1024 10 16 0.00 0.00
1:53 am 01:53 Clear 52 11.1 47 8.3 83 83 Calm 30.22 1023 10 16 0.00 0.00
2:39 am 02:39 Hazy 50 10 45 7.2 83 83 Calm 30.22 1023 2 3 0.00 0.00
2:48 am 02:48 Hazy 50 10 45 7 82 82 Calm 30.22 1023 3 5 0.00 0.00
2:53 am 02:53 Clear 50 10 45 7.2 83 83 Calm 30.23 1024 9 14 0.00 0.00
3:53 am 03:53 Clear 49 9.4 44 6.7 83 83 Calm 30.24 1024 10 16 0.00 0.00
4:53 am 04:53 Hazy 50 10 45 7.2 83 83 Calm 30.24 1024 6 10 0.00 0.00
5:53 am 05:53 Sunny with Mist and Fog 48 8.9 44 6.7 86 86 Calm 30.24 1024 3 4 0.00 0.00
6:08 am 06:08 Sunny with Mist and Fog 47 8.3 43 6.1 86 86 Calm 30.27 1025 6 10 0.00 0.00
6:53 am 06:53 Sunny 52 11.1 48 8.9 86 86 Calm 30.25 1025 10 16 0.00 0.00
7:53 am 07:53 Sunny 58 14.4 49 9.4 72 72 Calm 30.26 1025 10 16 0.00 0.00
8:53 am 08:53 Sunny 64 17.8 49 9.4 58 58 Calm 30.26 1025 10 16 0.00 0.00
9:53 am 09:53 Sunny 70 21.1 47 8.3 44 44 Calm 30.27 1025 10 16 0.00 0.00
10:53 am 10:53 Sunny 75 23.9 45 7.2 34 34 S 8 13 30.26 1025 10 16 0.00 0.00
11:53 am 11:53 Sunny 76 24.4 45 7.2 33 33 Calm 30.23 1024 10 16 0.00 0.00
12:53 pm 12:53 Sunny 78 25.6 45 7.2 31 31 VRB 3 6 30.22 1023 10 16 0.00 0.00
1:53 pm 13:53 Sunny 79 26.1 46 7.8 31 31 VRB 5 7 30.19 1022 10 16 0.00 0.00
2:53 pm 14:53 Mostly Sunny 79 26.1 47 8.3 32 32 SSE 6 9 30.17 1022 10 16 0.00 0.00
3:53 pm 15:53 Sunny 80 26.7 45 7.2 29 29 VRB 3 6 30.14 1021 10 16 0.00 0.00
4:53 pm 16:53 Sunny 79 26.1 45 7.2 30 30 S 3 6 30.14 1021 10 16 0.00 0.00
5:53 pm 17:53 Mostly Sunny 79 26.1 47 8.3 32 32 VRB 6 9 30.13 1020 10 16 0.00 0.00
6:53 pm 18:53 Cloudy 76 24.4 49 9.4 39 39 WSW 5 7 30.13 1020 10 16 0.00 0.00
7:53 pm 19:53 Mostly Clear 73 22.8 51 10.6 46 46 S 5 7 30.13 1020 10 16 0.00 0.00
8:53 pm 20:53 Clear 70 21.1 51 10.6 51 51 SSE 5 7 30.12 1020 10 16 0.00 0.00
9:53 pm 21:53 Clear 69 20.6 51 10.6 53 53 S 3 6 30.14 1021 10 16 0.00 0.00
10:53 pm 22:53 Clear 65 18.3 52 11.1 63 63 Calm 30.14 1021 10 16 0.00 0.00
11:53 pm 23:53 Clear 62 16.7 51 10.6 67 67 Calm 30.14 1021 10 16 0.00 0.00

Powered by AerisWeather